ECHOSTAR 14

Last updated on Thu Nov 21 2024 00:02:41 GMT+0000 (Coordinated Universal Time)

1 36499U 10010A 24325.27169044 .00000002 00000+0 00000+0 0 9992 2 36499 0.0160 291.0399 0002008 308.6209 159.0421 1.00270814 40796
UTC large
Height (km)
Speed (km/s)
/
Latitude / Longitude
Inclination (degrees)
Orbital Period (minutes)
Azimuth
Elevation
Range (km)
Doppler Factor

Next 0 passes for location: London (51.5072 / 0.1276)

Sorry there are no passes over London.